Project,Study,Ord_Occ,Event_Num,Cast_ID,Date_Time_UTC,Date_Time_PST,Lat_Dec,Lon_Dec,Sta_ID,Line,Sta,Depth,Pressure,PrQ,Temp1,Temp1Q,Temp2,Temp2Q,TempAve,Salt1,Salt1Q,Salt1_Corr,Salt2,Salt2Q,Salt2_Corr,SaltAve_Corr,Ox1,Ox1Q,Ox1_CruiseCorr,Ox1_StaCorr,Ox2,Ox2Q,Ox2_CruiseCorr,Ox2_StaCorr,OxAve_StaCorr,Ox1uM,Ox1uM_CruiseCorr,Ox1uM_StaCorr,Ox2uM,Ox2uM_CruiseCorr,Ox2uM_StaCorr,OxAveuM_StaCorr,FluorV,FluorQ,EstChl_CruiseCorr,EstChl_StaCorr,ISUSV,ISUSQ,EstNO3_CruiseCorr,EstNO3_StaCorr,SigThetaTS1,SigThetaTS1Q,SigThetaTS2,SigThetaTS2Q,BAT,XMiss,TransQ,pH,pHQ,SPAR,SPARQ,PAR,PARQ,PoT1,PoT2,DynHt,SVA,OxSat1,OxSat2,BTL_Depth,BTL_Temp,SaltB,OxB,OxBuM,Chl-a,Phaeo,NO3,NO2,NH4,PO4,SIL
CalCOFI,2101RL,043,,2101_043u,25-Jan-2021 03:46:57,24-Jan-2021 19:46:57,34.26983,-120.03407,081.8 046.9,081.8,046.9,573.000,577.937,,6.6055,,6.6059,,6.6057,34.2607,,34.2665,34.2580,,34.2600,34.2633,0.1327,,0.1388,,0.1317,,0.1379,,,5.769,6.2992,0.0000,5.728,6.8676,,0.0000,0.0341,,,, ,, , ,26.8969,,26.8947,,0.8758,80.3369,,,,3.6947E+00,,1.0000E-12,,6.5522,6.5527,0.9604,123.401,1.938,1.924,,,,,,,,,,,,
CalCOFI,2101RL,043,,2101_043u,25-Jan-2021 03:46:59,24-Jan-2021 19:46:59,34.26980,-120.03408,081.8 046.9,081.8,046.9,572.000,576.927,,6.6057,,6.6060,,6.6059,34.2608,,34.2666,34.2582,,34.2602,34.2634,0.1307,,0.1367,,0.1395,,0.1462,,,5.683,6.2092,0.0000,6.068,6.7720,,0.0000,0.0346,,,, ,, , ,26.8970,,26.8948,,0.8744,80.3634,,,,3.6947E+00,,1.0000E-12,,6.5525,6.5529,0.9604,123.380,1.909,2.038,,,,,,,,,,,,
CalCOFI,2101RL,043,,2101_043u,25-Jan-2021 03:47:00,24-Jan-2021 19:47:00,34.26980,-120.03408,081.8 046.9,081.8,046.9,571.000,575.917,,6.6055,,6.6059,,6.6057,34.2609,,34.2667,34.2582,,34.2602,34.2635,0.1306,,0.1366,,0.1416,,0.1484,,,5.681,6.2071,0.0000,6.161,6.7698,,0.0000,0.0348,,,, ,, , ,26.8970,,26.8948,,0.8761,80.3309,,,,3.4845E+00,,1.0000E-12,,6.5524,6.5528,0.9604,123.356,1.908,2.069,,,,,,,,,,,,
CalCOFI,2101RL,043,,2101_043u,25-Jan-2021 03:47:01,24-Jan-2021 19:47:01,34.26980,-120.03408,081.8 046.9,081.8,046.9,570.000,574.907,,6.6051,,6.6057,,6.6054,34.2611,,34.2669,34.2581,,34.2601,34.2635,0.1314,,0.1374,,0.1423,,0.1491,,,5.717,6.2448,0.0000,6.189,6.8098,,0.0000,0.0342,,,, ,, , ,26.8972,,26.8948,,0.8753,80.3462,,,,3.6883E+00,,1.0000E-12,,6.5522,6.5528,0.9604,123.325,1.920,2.079,570,,34.2552,, ,,,,,,,
CalCOFI,2101RL,043,,2101_043u,25-Jan-2021 03:48:32,24-Jan-2021 19:48:32,34.26966,-120.03439,081.8 046.9,081.8,046.9,569.000,573.897,,6.6052,,6.6057,,6.6055,34.2609,,34.2667,34.2581,,34.2601,34.2634,0.1362,,0.1424,,0.1391,,0.1457,,,5.925,6.4625,0.0000,6.050,7.0411,,0.0000,0.0347,,,, ,, , ,26.8970,,26.8947,,0.8696,80.4612,,,,3.5007E+00,,1.0000E-12,,6.5523,6.5529,0.9691,123.326,1.990,2.032,,,,,,,,,,,,
CalCOFI,2101RL,043,,2101_043u,25-Jan-2021 03:49:05,24-Jan-2021 19:49:05,34.26974,-120.03448,081.8 046.9,081.8,046.9,568.000,572.887,,6.6052,,6.6057,,6.6055,34.2609,,34.2667,34.2581,,34.2601,34.2634,0.1349,,0.1411,,0.1401,,0.1468,,,5.867,6.4018,0.0000,6.093,6.9766,,0.0000,0.0351,,,, ,, , ,26.8971,,26.8948,,0.8690,80.4734,,,,3.6974E+00,,1.0000E-12,,6.5524,6.5530,0.9710,123.309,1.971,2.047,,,,,,,,,,,,
CalCOFI,2101RL,043,,2101_043u,25-Jan-2021 03:49:05,24-Jan-2021 19:49:05,34.26974,-120.03448,081.8 046.9,081.8,046.9,567.000,571.877,,6.6050,,6.6055,,6.6053,34.2610,,34.2668,34.2582,,34.2602,34.2635,0.1349,,0.1411,,0.1401,,0.1468,,,5.866,6.4007,0.0000,6.093,6.9755,,0.0000,0.0350,,,, ,, , ,26.8971,,26.8949,,0.8694,80.4651,,,,3.6947E+00,,1.0000E-12,,6.5523,6.5529,0.9709,123.288,1.970,2.046,,,,,,,,,,,,
CalCOFI,2101RL,043,,2101_043u,25-Jan-2021 03:49:06,24-Jan-2021 19:49:06,34.26972,-120.03450,081.8 046.9,081.8,046.9,566.000,570.867,,6.6049,,6.6055,,6.6052,34.2610,,34.2668,34.2581,,34.2601,34.2635,0.1349,,0.1411,,0.1401,,0.1468,,,5.866,6.4007,0.0000,6.092,6.9755,,0.0000,0.0345,,,, ,, , ,26.8971,,26.8947,,0.8700,80.4534,,,,3.6947E+00,,1.0000E-12,,6.5523,6.5529,0.9709,123.272,1.970,2.046,,,,,,,,,,,,
CalCOFI,2101RL,043,,2101_043u,25-Jan-2021 03:49:08,24-Jan-2021 19:49:08,34.26972,-120.03450,081.8 046.9,081.8,046.9,565.000,569.857,,6.6048,,6.6054,,6.6051,34.2609,,34.2667,34.2580,,34.2600,34.2634,0.1373,,0.1436,,0.1401,,0.1468,,,5.970,6.5096,0.0000,6.091,7.0911,,0.0000,0.0346,,,, ,, , ,26.8971,,26.8947,,0.8698,80.4557,,,,3.6947E+00,,1.0000E-12,,6.5523,6.5529,0.9709,123.260,2.005,2.046,,,,,,,,,,,,
CalCOFI,2101RL,043,,2101_043u,25-Jan-2021 03:49:09,24-Jan-2021 19:49:09,34.26972,-120.03450,081.8 046.9,081.8,046.9,564.000,568.847,,6.6047,,6.6053,,6.6050,34.2609,,34.2667,34.2580,,34.2600,34.2634,0.1369,,0.1432,,0.1413,,0.1481,,,5.953,6.4918,0.0000,6.146,7.0722,,0.0000,0.0349,,,, ,, , ,26.8970,,26.8946,,0.8685,80.4827,,,,3.6947E+00,,1.0000E-12,,6.5524,6.5529,0.9709,123.248,1.999,2.064,,,,,,,,,,,,
CalCOFI,2101RL,043,,2101_043u,25-Jan-2021 03:49:10,24-Jan-2021 19:49:10,34.26972,-120.03452,081.8 046.9,081.8,046.9,563.000,567.837,,6.6047,,6.6052,,6.6050,34.2609,,34.2667,34.2581,,34.2601,34.2634,0.1427,,0.1492,,0.1406,,0.1473,,,6.204,6.7545,0.0000,6.116,7.3514,,0.0000,0.0349,,,, ,, , ,26.8970,,26.8948,,0.8685,80.4835,,,,3.6947E+00,,1.0000E-12,,6.5524,6.5529,0.9709,123.235,2.084,2.054,,,,,,,,,,,,
CalCOFI,2101RL,043,,2101_043u,25-Jan-2021 03:49:10,24-Jan-2021 19:49:10,34.26972,-120.03452,081.8 046.9,081.8,046.9,562.000,566.827,,6.6046,,6.6051,,6.6049,34.2610,,34.2668,34.2580,,34.2600,34.2634,0.1410,,0.1475,,0.1385,,0.1451,,,6.133,6.6802,0.0000,6.024,7.2724,,0.0000,0.0346,,,, ,, , ,26.8971,,26.8947,,0.8685,80.4835,,,,3.6947E+00,,1.0000E-12,,6.5524,6.5529,0.9709,123.212,2.060,2.023,,,,,,,,,,,,
CalCOFI,2101RL,043,,2101_043u,25-Jan-2021 03:49:11,24-Jan-2021 19:49:11,34.26972,-120.03452,081.8 046.9,081.8,046.9,561.000,565.817,,6.6045,,6.6050,,6.6048,34.2608,,34.2666,34.2579,,34.2599,34.2633,0.1388,,0.1452,,0.1408,,0.1475,,,6.033,6.5755,0.0000,6.121,7.1612,,0.0000,0.0342,,,, ,, , ,26.8969,,26.8946,,0.8686,80.4810,,,,3.6947E+00,,1.0000E-12,,6.5524,6.5530,0.9709,123.211,2.026,2.056,,,,,,,,,,,,
CalCOFI,2101RL,043,,2101_043u,25-Jan-2021 03:49:12,24-Jan-2021 19:49:12,34.26972,-120.03452,081.8 046.9,081.8,046.9,560.000,564.807,,6.6044,,6.6050,,6.6047,34.2608,,34.2666,34.2580,,34.2600,34.2633,0.1388,,0.1452,,0.1424,,0.1492,,,6.034,6.5766,0.0000,6.192,7.1623,,0.0000,0.0346,,,, ,, , ,26.8970,,26.8947,,0.8692,80.4698,,,,3.6947E+00,,1.0000E-12,,6.5524,6.5530,0.9709,123.195,2.027,2.080,,,,,,,,,,,,
CalCOFI,2101RL,043,,2101_043u,25-Jan-2021 03:49:13,24-Jan-2021 19:49:13,34.26970,-120.03452,081.8 046.9,081.8,046.9,559.000,563.797,,6.6043,,6.6048,,6.6046,34.2609,,34.2667,34.2580,,34.2600,34.2634,0.1387,,0.1451,,0.1403,,0.1470,,,6.034,6.5766,0.0000,6.101,7.1623,,0.0000,0.0347,,,, ,, , ,26.8970,,26.8947,,0.8673,80.5071,,,,3.6947E+00,,1.0000E-12,,6.5524,6.5529,0.9709,123.173,2.026,2.049,,,,,,,,,,,,
CalCOFI,2101RL,043,,2101_043u,25-Jan-2021 03:49:13,24-Jan-2021 19:49:13,34.26970,-120.03452,081.8 046.9,081.8,046.9,558.000,562.787,,6.6042,,6.6047,,6.6045,34.2609,,34.2667,34.2581,,34.2601,34.2634,0.1387,,0.1451,,0.1431,,0.1500,,,6.033,6.5755,0.0000,6.224,7.1612,,0.0000,0.0346,,,, ,, , ,26.8970,,26.8947,,0.8679,80.4944,,,,3.6947E+00,,1.0000E-12,,6.5524,6.5529,0.9709,123.157,2.026,2.091,,,,,,,,,,,,
CalCOFI,2101RL,043,,2101_043u,25-Jan-2021 03:49:14,24-Jan-2021 19:49:14,34.26970,-120.03452,081.8 046.9,081.8,046.9,557.000,561.777,,6.6041,,6.6046,,6.6044,34.2610,,34.2668,34.2581,,34.2601,34.2635,0.1387,,0.1451,,0.1527,,0.1602,,,6.032,6.5745,0.0000,6.641,7.1601,,0.0000,0.0348,,,, ,, , ,26.8971,,26.8948,,0.8680,80.4934,,,,3.3057E+00,,1.0000E-12,,6.5524,6.5529,0.9709,123.134,2.026,2.231,,,,,,,,,,,,
CalCOFI,2101RL,043,,2101_043u,25-Jan-2021 03:49:15,24-Jan-2021 19:49:15,34.26970,-120.03452,081.8 046.9,081.8,046.9,556.000,560.767,,6.6039,,6.6045,,6.6042,34.2609,,34.2667,34.2580,,34.2600,34.2634,0.1387,,0.1451,,0.1445,,0.1515,,,6.031,6.5735,0.0000,6.286,7.1590,,0.0000,0.0343,,,, ,, , ,26.8971,,26.8947,,0.8663,80.5276,,,,3.6847E+00,,1.0000E-12,,6.5523,6.5529,0.9709,123.122,2.026,2.111,,,,,,,,,,,,
CalCOFI,2101RL,043,,2101_043u,25-Jan-2021 03:49:16,24-Jan-2021 19:49:16,34.26970,-120.03453,081.8 046.9,081.8,046.9,555.000,559.757,,6.6038,,6.6044,,6.6041,34.2610,,34.2668,34.2580,,34.2600,34.2634,0.1387,,0.1451,,0.1431,,0.1500,,,6.030,6.5724,0.0000,6.222,7.1579,,0.0000,0.0344,,,, ,, , ,26.8971,,26.8947,,0.8677,80.4979,,,,3.6947E+00,,1.0000E-12,,6.5523,6.5529,0.9709,123.102,2.025,2.090,,,,,,,,,,,,
CalCOFI,2101RL,043,,2101_043u,25-Jan-2021 03:49:18,24-Jan-2021 19:49:18,34.26970,-120.03454,081.8 046.9,081.8,046.9,554.000,558.747,,6.6036,,6.6041,,6.6039,34.2609,,34.2667,34.2581,,34.2601,34.2634,0.1392,,0.1456,,0.1424,,0.1492,,,6.054,6.5975,0.0000,6.194,7.1846,,0.0000,0.0344,,,, ,, , ,26.8971,,26.8948,,0.8680,80.4935,,,,3.6947E+00,,1.0000E-12,,6.5523,6.5527,0.9709,123.089,2.033,2.080,,,,,,,,,,,,
CalCOFI,2101RL,043,,2101_043u,25-Jan-2021 03:49:19,24-Jan-2021 19:49:19,34.26970,-120.03455,081.8 046.9,081.8,046.9,553.000,557.737,,6.6037,,6.6041,,6.6039,34.2608,,34.2666,34.2580,,34.2600,34.2633,0.1466,,0.1533,,0.1476,,0.1548,,,6.374,6.9325,0.0000,6.417,7.5404,,0.0000,0.0345,,,, ,, , ,26.8970,,26.8947,,0.8671,80.5114,,,,3.6947E+00,,1.0000E-12,,6.5524,6.5528,0.9709,123.087,2.141,2.155,,,,,,,,,,,,
CalCOFI,2101RL,043,,2101_043u,25-Jan-2021 03:49:20,24-Jan-2021 19:49:20,34.26970,-120.03456,081.8 046.9,081.8,046.9,552.000,556.727,,6.6035,,6.6039,,6.6037,34.2607,,34.2665,34.2580,,34.2600,34.2633,0.1445,,0.1511,,0.1441,,0.1510,,,6.284,6.8383,0.0000,6.269,7.4403,,0.0000,0.0347,,,, ,, , ,26.8969,,26.8947,,0.8667,80.5196,,,,3.6947E+00,,1.0000E-12,,6.5523,6.5527,0.9709,123.076,2.111,2.106,,,,,,,,,,,,
CalCOFI,2101RL,043,,2101_043u,25-Jan-2021 03:49:21,24-Jan-2021 19:49:21,34.26970,-120.03456,081.8 046.9,081.8,046.9,551.000,555.718,,6.6033,,6.6037,,6.6035,34.2608,,34.2666,34.2580,,34.2600,34.2633,0.1423,,0.1488,,0.1438,,0.1507,,,6.187,6.7368,0.0000,6.256,7.3325,,0.0000,0.0345,,,, ,, , ,26.8970,,26.8947,,0.8653,80.5479,,,,3.6947E+00,,1.0000E-12,,6.5522,6.5526,0.9709,123.054,2.078,2.101,,,,,,,,,,,,
CalCOFI,2101RL,043,,2101_043u,25-Jan-2021 03:49:22,24-Jan-2021 19:49:22,34.26970,-120.03456,081.8 046.9,081.8,046.9,550.000,554.708,,6.6031,,6.6037,,6.6034,34.2609,,34.2667,34.2580,,34.2600,34.2634,0.1426,,0.1491,,0.1470,,0.1541,,,6.201,6.7514,0.0000,6.392,7.3480,,0.0000,0.0347,,,, ,, , ,26.8971,,26.8947,,0.8649,80.5554,,,,3.6947E+00,,1.0000E-12,,6.5521,6.5527,0.9709,123.031,2.083,2.147,,,,,,,,,,,,
CalCOFI,2101RL,043,,2101_043u,25-Jan-2021 03:49:23,24-Jan-2021 19:49:23,34.26970,-120.03457,081.8 046.9,081.8,046.9,549.000,553.698,,6.6030,,6.6035,,6.6033,34.2610,,34.2668,34.2581,,34.2601,34.2635,0.1437,,0.1503,,0.1459,,0.1530,,,6.247,6.7996,0.0000,6.343,7.3992,,0.0000,0.0350,,,, ,, , ,26.8971,,26.8948,,0.8645,80.5641,,,,3.6947E+00,,1.0000E-12,,6.5521,6.5526,0.9709,123.009,2.098,2.130,,,,,,,,,,,,
CalCOFI,2101RL,043,,2101_043u,25-Jan-2021 03:49:24,24-Jan-2021 19:49:24,34.26970,-120.03458,081.8 046.9,081.8,046.9,548.000,552.688,,6.6027,,6.6034,,6.6031,34.2610,,34.2668,34.2580,,34.2600,34.2634,0.1488,,0.1556,,0.1517,,0.1591,,,6.470,7.0330,0.0000,6.596,7.6472,,0.0000,0.0340,,,, ,, , ,26.8972,,26.8947,,0.8642,80.5706,,,,3.6947E+00,,1.0000E-12,,6.5519,6.5526,0.9709,122.989,2.173,2.215,,,,,,,,,,,,
CalCOFI,2101RL,043,,2101_043u,25-Jan-2021 03:49:24,24-Jan-2021 19:49:24,34.26970,-120.03458,081.8 046.9,081.8,046.9,547.000,551.678,,6.6026,,6.6032,,6.6029,34.2609,,34.2667,34.2580,,34.2600,34.2634,0.1509,,0.1578,,0.1415,,0.1483,,,6.563,7.1303,0.0000,6.154,7.7506,,0.0000,0.0341,,,, ,, , ,26.8971,,26.8947,,0.8652,80.5502,,,,3.6947E+00,,1.0000E-12,,6.5519,6.5525,0.9709,122.979,2.204,2.067,,,,,,,,,,,,
CalCOFI,2101RL,043,,2101_043u,25-Jan-2021 03:49:25,24-Jan-2021 19:49:25,34.26970,-120.03458,081.8 046.9,081.8,046.9,546.000,550.668,,6.6026,,6.6032,,6.6029,34.2608,,34.2666,34.2579,,34.2599,34.2633,0.1546,,0.1617,,0.1543,,0.1619,,,6.724,7.2989,0.0000,6.711,7.9296,,0.0000,0.0342,,,, ,, , ,26.8970,,26.8946,,0.8643,80.5674,,,,3.6947E+00,,1.0000E-12,,6.5520,6.5526,0.9709,122.972,2.258,2.254,,,,,,,,,,,,
CalCOFI,2101RL,043,,2101_043u,25-Jan-2021 03:49:26,24-Jan-2021 19:49:26,34.26970,-120.03458,081.8 046.9,081.8,046.9,545.000,549.658,,6.6026,,6.6032,,6.6029,34.2609,,34.2667,34.2579,,34.2599,34.2633,0.1514,,0.1584,,0.1566,,0.1643,,,6.585,7.1534,0.0000,6.810,7.7750,,0.0000,0.0339,,,, ,, , ,26.8970,,26.8946,,0.8629,80.5954,,,,3.6947E+00,,1.0000E-12,,6.5521,6.5527,0.9709,122.955,2.211,2.287,,,,,,,,,,,,
CalCOFI,2101RL,043,,2101_043u,25-Jan-2021 03:49:27,24-Jan-2021 19:49:27,34.26970,-120.03458,081.8 046.9,081.8,046.9,544.000,548.648,,6.6027,,6.6032,,6.6030,34.2609,,34.2667,34.2579,,34.2599,34.2633,0.1500,,0.1569,,0.1513,,0.1587,,,6.521,7.0864,0.0000,6.580,7.7039,,0.0000,0.0342,,,, ,, , ,26.8970,,26.8947,,0.8613,80.6273,,,,3.5432E+00,,1.0000E-12,,6.5523,6.5528,0.9709,122.943,2.190,2.210,,,,,,,,,,,,
CalCOFI,2101RL,043,,2101_043u,25-Jan-2021 03:49:28,24-Jan-2021 19:49:28,34.26970,-120.03458,081.8 046.9,081.8,046.9,543.000,547.638,,6.6027,,6.6032,,6.6030,34.2609,,34.2667,34.2579,,34.2599,34.2633,0.1513,,0.1583,,0.1511,,0.1585,,,6.579,7.1471,0.0000,6.573,7.7684,,0.0000,0.0345,,,, ,, , ,26.8970,,26.8946,,0.8589,80.6767,,,,3.6930E+00,,1.0000E-12,,6.5524,6.5529,0.9709,122.927,2.210,2.208,,,,,,,,,,,,
CalCOFI,2101RL,043,,2101_043u,25-Jan-2021 03:49:30,24-Jan-2021 19:49:30,34.26970,-120.03460,081.8 046.9,081.8,046.9,542.000,546.629,,6.6027,,6.6033,,6.6030,34.2608,,34.2666,34.2580,,34.2600,34.2633,0.1571,,0.1643,,0.1553,,0.1629,,,6.830,7.4098,0.0000,6.755,8.0475,,0.0000,0.0344,,,, ,, , ,26.8970,,26.8947,,0.8593,80.6684,,,,3.6947E+00,,1.0000E-12,,6.5525,6.5531,0.9709,122.915,2.294,2.269,,,,,,,,,,,,
CalCOFI,2101RL,043,,2101_043u,25-Jan-2021 03:49:31,24-Jan-2021 19:49:31,34.26970,-120.03460,081.8 046.9,081.8,046.9,541.000,545.619,,6.6028,,6.6033,,6.6031,34.2609,,34.2667,34.2578,,34.2598,34.2633,0.1543,,0.1614,,0.1586,,0.1664,,,6.710,7.2842,0.0000,6.895,7.9140,,0.0000,0.0345,,,, ,, , ,26.8970,,26.8945,,0.8568,80.7192,,,,3.6947E+00,,1.0000E-12,,6.5526,6.5532,0.9709,122.900,2.254,2.316,,,,,,,,,,,,
CalCOFI,2101RL,043,,2101_043u,25-Jan-2021 03:49:31,24-Jan-2021 19:49:31,34.26970,-120.03460,081.8 046.9,081.8,046.9,540.000,544.609,,6.6029,,6.6033,,6.6031,34.2608,,34.2666,34.2579,,34.2599,34.2633,0.1540,,0.1611,,0.1572,,0.1650,,,6.696,7.2696,0.0000,6.836,7.8985,,0.0000,0.0339,,,, ,, , ,26.8969,,26.8946,,0.8540,80.7760,,,,3.5199E+00,,1.0000E-12,,6.5528,6.5532,0.9709,122.893,2.249,2.296,,,,,,,,,,,,
CalCOFI,2101RL,043,,2101_043u,25-Jan-2021 03:49:32,24-Jan-2021 19:49:32,34.26968,-120.03461,081.8 046.9,081.8,046.9,539.000,543.599,,6.6027,,6.6033,,6.6030,34.2608,,34.2666,34.2580,,34.2600,34.2633,0.1533,,0.1603,,0.1568,,0.1645,,,6.669,7.2413,0.0000,6.816,7.8684,,0.0000,0.0342,,,, ,, , ,26.8969,,26.8946,,0.8532,80.7910,,,,3.2340E+00,,1.0000E-12,,6.5528,6.5533,0.9709,122.874,2.240,2.289,,,,,,,,,,,,
CalCOFI,2101RL,043,,2101_043u,25-Jan-2021 03:49:33,24-Jan-2021 19:49:33,34.26966,-120.03462,081.8 046.9,081.8,046.9,538.000,542.589,,6.6027,,6.6032,,6.6030,34.2609,,34.2667,34.2580,,34.2600,34.2634,0.1533,,0.1603,,0.1551,,0.1627,,,6.668,7.2403,0.0000,6.745,7.8673,,0.0000,0.0331,,,, ,, , ,26.8970,,26.8946,,0.8527,80.8026,,,,3.6909E+00,,1.0000E-12,,6.5529,6.5534,0.9709,122.857,2.240,2.265,,,,,,,,,,,,
CalCOFI,2101RL,043,,2101_043u,25-Jan-2021 03:49:34,24-Jan-2021 19:49:34,34.26966,-120.03462,081.8 046.9,081.8,046.9,537.000,541.579,,6.6028,,6.6032,,6.6030,34.2609,,34.2667,34.2580,,34.2600,34.2634,0.1533,,0.1603,,0.1553,,0.1629,,,6.667,7.2392,0.0000,6.754,7.8662,,0.0000,0.0348,,,, ,, , ,26.8970,,26.8946,,0.8504,80.8477,,,,3.6947E+00,,1.0000E-12,,6.5531,6.5535,0.9709,122.840,2.239,2.268,,,,,,,,,,,,
CalCOFI,2101RL,043,,2101_043u,25-Jan-2021 03:49:35,24-Jan-2021 19:49:35,34.26966,-120.03462,081.8 046.9,081.8,046.9,536.000,540.569,,6.6032,,6.6035,,6.6034,34.2608,,34.2666,34.2578,,34.2598,34.2632,0.1533,,0.1603,,0.1553,,0.1629,,,6.666,7.2382,0.0000,6.754,7.8651,,0.0000,0.0344,,,, ,, , ,26.8968,,26.8944,,0.8489,80.8787,,,,3.6947E+00,,1.0000E-12,,6.5535,6.5539,0.9709,122.840,2.239,2.269,,,,,,,,,,,,
CalCOFI,2101RL,043,,2101_043u,25-Jan-2021 03:49:36,24-Jan-2021 19:49:36,34.26964,-120.03462,081.8 046.9,081.8,046.9,535.000,539.560,,6.6044,,6.6052,,6.6048,34.2606,,34.2664,34.2577,,34.2597,34.2631,0.1531,,0.1601,,0.1578,,0.1656,,,6.655,7.2267,0.0000,6.865,7.8529,,0.0000,0.0352,,,, ,, , ,26.8965,,26.8940,,0.8443,80.9724,,,,3.6947E+00,,1.0000E-12,,6.5549,6.5557,0.9709,122.858,2.236,2.306,,,,,,,,,,,,
CalCOFI,2101RL,043,,2101_043u,25-Jan-2021 03:49:37,24-Jan-2021 19:49:37,34.26964,-120.03462,081.8 046.9,081.8,046.9,534.000,538.550,,6.6053,,6.6063,,6.6058,34.2603,,34.2661,34.2576,,34.2596,34.2629,0.1503,,0.1572,,0.1537,,0.1612,,,6.537,7.1031,0.0000,6.682,7.7217,,0.0000,0.0350,,,, ,, , ,26.8961,,26.8939,,0.8413,81.0332,,,,3.6947E+00,,1.0000E-12,,6.5558,6.5569,0.9709,122.876,2.195,2.244,,,,,,,,,,,,
CalCOFI,2101RL,043,,2101_043u,25-Jan-2021 03:49:38,24-Jan-2021 19:49:38,34.26964,-120.03462,081.8 046.9,081.8,046.9,533.000,537.540,,6.6069,,6.6070,,6.6070,34.2600,,34.2658,34.2575,,34.2595,34.2627,0.1472,,0.1540,,0.1534,,0.1609,,,6.400,6.9597,0.0000,6.669,7.5693,,0.0000,0.0352,,,, ,, , ,26.8957,,26.8936,,0.8399,81.0617,,,,3.6947E+00,,1.0000E-12,,6.5575,6.5576,0.9709,122.905,2.150,2.240,,,,,,,,,,,,
CalCOFI,2101RL,043,,2101_043u,25-Jan-2021 03:49:39,24-Jan-2021 19:49:39,34.26964,-120.03462,081.8 046.9,081.8,046.9,532.000,536.530,,6.6074,,6.6078,,6.6076,34.2601,,34.2659,34.2574,,34.2594,34.2627,0.1474,,0.1542,,0.1549,,0.1625,,,6.409,6.9691,0.0000,6.734,7.5793,,0.0000,0.0342,,,, ,, , ,26.8957,,26.8935,,0.8393,81.0724,,,,3.6947E+00,,1.0000E-12,,6.5581,6.5585,0.9709,122.894,2.153,2.262,,,,,,,,,,,,
CalCOFI,2101RL,043,,2101_043u,25-Jan-2021 03:49:39,24-Jan-2021 19:49:39,34.26962,-120.03462,081.8 046.9,081.8,046.9,531.000,535.520,,6.6078,,6.6086,,6.6082,34.2603,,34.2661,34.2573,,34.2593,34.2627,0.1471,,0.1539,,0.1549,,0.1625,,,6.397,6.9566,0.0000,6.735,7.5660,,0.0000,0.0338,,,, ,, , ,26.8957,,26.8933,,0.8392,81.0740,,,,3.6947E+00,,1.0000E-12,,6.5586,6.5594,0.9709,122.874,2.149,2.262,,,,,,,,,,,,
CalCOFI,2101RL,043,,2101_043u,25-Jan-2021 03:49:40,24-Jan-2021 19:49:40,34.26962,-120.03462,081.8 046.9,081.8,046.9,530.000,534.510,,6.6081,,6.6087,,6.6084,34.2602,,34.2660,34.2572,,34.2592,34.2626,0.1494,,0.1563,,0.1525,,0.1600,,,6.496,7.0602,0.0000,6.633,7.6761,,0.0000,0.0345,,,, ,, , ,26.8956,,26.8932,,0.8385,81.0881,,,,3.6947E+00,,1.0000E-12,,6.5590,6.5596,0.9709,122.865,2.182,2.228,,,,,,,,,,,,
CalCOFI,2101RL,043,,2101_043u,25-Jan-2021 03:49:42,24-Jan-2021 19:49:42,34.26962,-120.03462,081.8 046.9,081.8,046.9,529.000,533.501,,6.6071,,6.6079,,6.6075,34.2603,,34.2661,34.2572,,34.2592,34.2627,0.1518,,0.1588,,0.1523,,0.1598,,,6.600,7.1691,0.0000,6.623,7.7917,,0.0000,0.0342,,,, ,, , ,26.8958,,26.8933,,0.8388,81.0834,,,,3.3314E+00,,1.0000E-12,,6.5581,6.5589,0.9709,122.829,2.217,2.225,,,,,,,,,,,,
CalCOFI,2101RL,043,,2101_043u,25-Jan-2021 03:49:43,24-Jan-2021 19:49:43,34.26960,-120.03464,081.8 046.9,081.8,046.9,528.000,532.491,,6.6074,,6.6086,,6.6080,34.2603,,34.2661,34.2572,,34.2592,34.2627,0.1672,,0.1749,,0.1656,,0.1739,,,7.274,7.8746,0.0000,7.202,8.5412,,0.0000,0.0344,,,, ,, , ,26.8957,,26.8932,,0.8243,81.3767,,,,3.7109E+00,,1.0000E-12,,6.5585,6.5597,0.9709,122.826,2.443,2.419,,,,,,,,,,,,
CalCOFI,2101RL,043,,2101_043u,25-Jan-2021 03:49:44,24-Jan-2021 19:49:44,34.26960,-120.03464,081.8 046.9,081.8,046.9,527.000,531.481,,6.6103,,6.6110,,6.6107,34.2599,,34.2657,34.2569,,34.2589,34.2623,0.1756,,0.1837,,0.1658,,0.1741,,,7.639,8.2567,0.0000,7.210,8.9471,,0.0000,0.0345,,,, ,, , ,26.8950,,26.8925,,0.8175,81.5149,,,,3.6947E+00,,1.0000E-12,,6.5615,6.5622,0.9709,122.880,2.566,2.422,,,,,,,,,,,,
CalCOFI,2101RL,043,,2101_043u,25-Jan-2021 03:49:45,24-Jan-2021 19:49:45,34.26960,-120.03464,081.8 046.9,081.8,046.9,526.000,530.471,,6.6127,,6.6133,,6.6130,34.2593,,34.2651,34.2565,,34.2585,34.2618,0.1769,,0.1850,,0.1737,,0.1825,,,7.691,8.3111,0.0000,7.554,9.0049,,0.0000,0.0338,,,, ,, , ,26.8943,,26.8919,,0.8171,81.5241,,,,3.6947E+00,,1.0000E-12,,6.5640,6.5646,0.9709,122.940,2.584,2.538,,,,,,,,,,,,
CalCOFI,2101RL,043,,2101_043u,25-Jan-2021 03:49:46,24-Jan-2021 19:49:46,34.26958,-120.03466,081.8 046.9,081.8,046.9,525.000,529.462,,6.6132,,6.6142,,6.6137,34.2593,,34.2651,34.2565,,34.2585,34.2618,0.1780,,0.1862,,0.1776,,0.1866,,,7.740,8.3624,0.0000,7.722,9.0594,,0.0000,0.0342,,,, ,, , ,26.8942,,26.8918,,0.8098,81.6723,,,,3.6947E+00,,1.0000E-12,,6.5645,6.5656,0.9709,122.932,2.600,2.594,,,,,,,,,,,,
CalCOFI,2101RL,043,,2101_043u,25-Jan-2021 03:49:47,24-Jan-2021 19:49:47,34.26958,-120.03466,081.8 046.9,081.8,046.9,524.000,528.452,,6.6134,,6.6165,,6.6150,34.2594,,34.2652,34.2561,,34.2581,34.2617,0.1760,,0.1841,,0.1791,,0.1882,,,7.655,8.2735,0.0000,7.789,8.9649,,0.0000,0.0342,,,, ,, , ,26.8942,,26.8912,,0.8066,81.7376,,,,3.6947E+00,,1.0000E-12,,6.5649,6.5680,0.9709,122.914,2.571,2.617,,,,,,,,,,,,
CalCOFI,2101RL,043,,2101_043u,25-Jan-2021 03:49:48,24-Jan-2021 19:49:48,34.26958,-120.03466,081.8 046.9,081.8,046.9,523.000,527.442,,6.6146,,6.6174,,6.6160,34.2591,,34.2649,34.2559,,34.2579,34.2614,0.1730,,0.1810,,0.1765,,0.1855,,,7.524,8.1363,0.0000,7.674,8.8192,,0.0000,0.0342,,,, ,, , ,26.8938,,26.8909,,0.8052,81.7669,,,,3.6947E+00,,1.0000E-12,,6.5662,6.5690,0.9709,122.937,2.528,2.578,,,,,,,,,,,,
CalCOFI,2101RL,043,,2101_043u,25-Jan-2021 03:49:49,24-Jan-2021 19:49:49,34.26958,-120.03466,081.8 046.9,081.8,046.9,522.000,526.432,,6.6160,,6.6178,,6.6169,34.2587,,34.2645,34.2558,,34.2578,34.2612,0.1802,,0.1885,,0.1779,,0.1869,,,7.836,8.4629,0.0000,7.736,9.1662,,0.0000,0.0342,,,, ,, , ,26.8933,,26.8907,,0.8032,81.8078,,,,3.6947E+00,,1.0000E-12,,6.5676,6.5695,0.9709,122.971,2.632,2.599,,,,,,,,,,,,
CalCOFI,2101RL,043,,2101_043u,25-Jan-2021 03:49:50,24-Jan-2021 19:49:50,34.26958,-120.03468,081.8 046.9,081.8,046.9,521.000,525.422,,6.6170,,6.6181,,6.6176,34.2586,,34.2644,34.2557,,34.2577,34.2611,0.1851,,0.1936,,0.1817,,0.1910,,,8.051,8.6880,0.0000,7.902,9.4052,,0.0000,0.0338,,,, ,, , ,26.8931,,26.8906,,0.8014,81.8443,,,,3.4759E+00,,1.0000E-12,,6.5687,6.5698,0.9709,122.978,2.705,2.655,,,,,,,,,,,,
CalCOFI,2101RL,043,,2101_043u,25-Jan-2021 03:49:51,24-Jan-2021 19:49:51,34.26958,-120.03468,081.8 046.9,081.8,046.9,520.000,524.413,,6.6181,,6.6188,,6.6185,34.2586,,34.2644,34.2555,,34.2575,34.2610,0.1797,,0.1880,,0.1773,,0.1863,,,7.816,8.4420,0.0000,7.712,9.1439,,0.0000,0.0339,,,, ,, , ,26.8929,,26.8904,,0.7984,81.9054,,,,3.6897E+00,,1.0000E-12,,6.5699,6.5706,0.9709,122.981,2.626,2.591,,,,,,,,,,,,
CalCOFI,2101RL,043,,2101_043u,25-Jan-2021 03:49:52,24-Jan-2021 19:49:52,34.26958,-120.03468,081.8 046.9,081.8,046.9,519.000,523.403,,6.6198,,6.6192,,6.6195,34.2584,,34.2642,34.2556,,34.2576,34.2609,0.1737,,0.1817,,0.1822,,0.1915,,,7.552,8.1656,0.0000,7.925,8.8504,,0.0000,0.0345,,,, ,, , ,26.8925,,26.8904,,0.7976,81.9220,,,,3.6947E+00,,1.0000E-12,,6.5718,6.5711,0.9709,123.010,2.537,2.663,,,,,,,,,,,,
CalCOFI,2101RL,043,,2101_043u,25-Jan-2021 03:49:53,24-Jan-2021 19:49:53,34.26956,-120.03470,081.8 046.9,081.8,046.9,518.000,522.393,,6.6223,,6.6225,,6.6224,34.2579,,34.2637,34.2552,,34.2572,34.2605,0.1727,,0.1806,,0.1734,,0.1822,,,7.510,8.1217,0.0000,7.543,8.8036,,0.0000,0.0345,,,, ,, , ,26.8918,,26.8896,,0.7961,81.9538,,,,3.6947E+00,,1.0000E-12,,6.5743,6.5745,0.9709,123.060,2.523,2.534,,,,,,,,,,,,
CalCOFI,2101RL,043,,2101_043u,25-Jan-2021 03:49:54,24-Jan-2021 19:49:54,34.26956,-120.03470,081.8 046.9,081.8,046.9,517.000,521.383,,6.6241,,6.6255,,6.6248,34.2576,,34.2634,34.2547,,34.2567,34.2601,0.1722,,0.1801,,0.1775,,0.1865,,,7.491,8.1018,0.0000,7.720,8.7825,,0.0000,0.0342,,,, ,, , ,26.8913,,26.8888,,0.7929,82.0189,,,,3.6947E+00,,1.0000E-12,,6.5762,6.5776,0.9709,123.097,2.517,2.594,,,,,,,,,,,,